Regional Weather Roundup
Issued by NWS

Home | Current Version | Previous Version | Text Only | Print | Product List | Glossary Off
Versions: 1 2 3 4 5 6 7 8 9 10 11 12 13 14 15 16 17 18 19 20 21 22 23 24 25 26 27 28 29 30 31 32 33 34 35 36 37 38 39 40 41 42 43 44 45 46 47 48 49 50

000
ASUS43 KOAX 221510
RWRNE

WEATHER ROUNDUP FOR NEBRASKA
NATIONAL WEATHER SERVICE OMAHA NE
900 AM CST WED FEB 22 2017

NOTES: SATELLITE DATA IS BEING USED TO AUGMENT CLOUD COVER ABOVE
       12000 FEET.
       "FAIR" INDICATES FEW OR NO CLOUDS BELOW 12,000 FEET WITH NO
       SIGNIFICANT WEATHER AND/OR OBSTRUCTIONS TO VISIBILITY.

  * THESE STATIONS DO NOT REPORT WEATHER SUCH AS RAIN...SNOW OR FOG.

NEZ001>004-019>022-054>056-221600-
NEBRASKA PANHANDLE

CITY           SKY/WX    TMP DP  RH WIND       PRES   REMARKS
SCOTTSBLUFF    PTSUNNY   46  25  43 W22G29    29.86S
ALLIANCE       SUNNY     43  27  53 W22G30    29.79S
CHADRON        PTSUNNY   46  27  47 NW14      29.82R
KIMBALL        MOSUNNY   42  26  52 W22G30    29.88R
SIDNEY         SUNNY     45  23  42 NW21G26   29.85R
$$

NEZ057>060-069>072-079>082-221600-
SOUTHWEST NEBRASKA

CITY           SKY/WX    TMP DP  RH WIND       PRES   REMARKS
NORTH PLATTE   SUNNY     43  35  73 W9        29.81R
IMPERIAL       SUNNY     43  32  65 W6        29.86S
LEXINGTON      SUNNY     46  32  57 NW16G22   29.78R
MCCOOK         SUNNY     47  34  60 NW21      29.81R
OGALLALA       SUNNY     42  34  72 SW3       29.83F
$$

NEZ005>010-023>029-035>040-094-221600-
NORTH CENTRAL NEBRASKA

CITY           SKY/WX    TMP DP  RH WIND       PRES   REMARKS
VALENTINE      SUNNY     47  36  65 W13       29.74R
AINSWORTH      SUNNY     47  39  73 W14       29.74S
BROKEN BOW     SUNNY     50  37  61 NW16G24   29.74R
O`NEILL        SUNNY     51  39  63 W13       29.69R
ORD            SUNNY     48  34  58 VRB6      29.71R
THEDFORD       SUNNY     46  35  66 W13       29.78S
$$

NEZ041-046>049-061>064-073>077-083>087-221600-
SOUTH CENTRAL NEBRASKA

CITY           SKY/WX    TMP DP  RH WIND       PRES   REMARKS
GRAND ISLAND   SUNNY     49  32  52 W12       29.72R
AURORA         SUNNY     50  32  50 NW10      29.70R
HASTINGS       SUNNY     50  31  48 NW14      29.73R
HEBRON         SUNNY     52  30  41 W10       29.69S
HOLDREGE       SUNNY     50  29  43 NW12      29.76R
KEARNEY *      SUNNY     46  28  49 NW10      29.74R
YORK           SUNNY     50  32  50 W13       29.68R
$$

NEZ011>018-030>034-042>045-221600-
NORTHEAST NEBRASKA

CITY           SKY/WX    TMP DP  RH WIND       PRES   REMARKS
NORFOLK        SUNNY     47  33  58 W7        29.66S
ALBION         SUNNY     50  33  53 NW10      29.68F
BLAIR          SUNNY     51  38  60 SW9       29.64S
FREMONT        SUNNY     48  36  62 NW5       29.67R
TEKAMAH        SUNNY     48  36  63 W5        29.65R
WAYNE          SUNNY     47  35  64 NW5       29.65F
$$

NEZ050>053-065>068-078-088>093-221600-
SOUTHEAST NEBRASKA

CITY           SKY/WX    TMP DP  RH WIND       PRES   REMARKS
LINCOLN        SUNNY     48  35  60 W6        29.68S
OMAHA EPPLEY   MOSUNNY   52  37  56 SE8       29.64F
BEATRICE       SUNNY     54  37  52 SW10      29.67F
FALLS CITY     SUNNY     56  34  43 SW15G24   29.68S
NEBRASKA CITY  SUNNY     52  32  46 S7        29.67F
PLATTSMOUTH    SUNNY     53  33  47 S10       29.65F
$$

NEZ044-045-051>053-067-221600-
OMAHA AREA

CITY           SKY/WX    TMP DP  RH WIND       PRES   REMARKS
OMAHA EPPLEY   MOSUNNY   52  37  56 SE8       29.64F
BLAIR          SUNNY     51  38  60 SW9       29.64S
FREMONT        SUNNY     48  36  62 NW5       29.67R
MILLARD        SUNNY     56  39  53 SW7       29.65S
OFFUTT AFB     SUNNY     53  41  64 S7        29.64F
PLATTSMOUTH    SUNNY     53  33  47 S10       29.65F
WAHOO          FAIR      50  34  54 W6        29.66R
$$



USA.gov is the U.S. government's official web portal to all federal, state and local government web resources and services.